Voltar ao catálogo

OPS 6182

DMSP 5D-1 F3

AtivoMeteoSSO
NORAD 10820·PAYLOAD·🇺🇸 United States

Lançado May 1, 1978 de Vandenberg Space Force Base

Loading…

Próximas Passagens (próximas 24 horas)

TLE

AtualizadoSource: Space-Track

Época: Sep 14, 2026, 12:46 UTC

1 10820U 78042A   26257.53206268  .00000242  00000-0  94044-4 0  9999
2 10820  98.4462  90.8823 0010501  81.4176 278.8201 14.38138530525859

Acompanhe OPS 6182 em tempo real com AllMySat

Download on the App Store